[[{"header":{"parameterUnit":"m.s-1","parameterCategory":1,"la1":30.2991,"la2":30.254,"lo1":-89.0895,"lo2":-89.0444,"dy":0.0017,"dx":0.0017,"nx":28,"ny":28,"refTime":"2024-03-16T03:00:00:Z","depth":0,"parameterNumber":2,"parameterNumberName":"U-component_of_WINDS"},"data":[0,0,0,0,0,0,0,0,0,0,0,0,0,0,0,0,0,0,0,0,0,0,0,0,0,0,0,0,0,0,0,0,0,0,0,0,0,0,0,0,0,0,0,0,0,0,0,0,0,0,0,0,0,0,0,0,0,0,-1.6369,-1.6369,0,-1.6374,-1.6374,-1.6374,-1.6323,-1.6321,-1.632,-1.6319,-1.6324,-1.6326,-1.6327,0,0,0,0,0,0,0,0,0,0,0,0,0,-1.6315,-1.6316,-1.6369,-1.6369,-1.6369,-1.6374,-1.6374,-1.6374,-1.6323,-1.6321,-1.632,-1.6318,-1.6324,-1.6326,-1.6327,0,0,0,0,0,0,0,0,0,0,0,0,0,-1.6331,-1.6317,-1.6369,-1.6344,-1.6342,-1.6374,-1.6374,-1.6374,-1.6323,-1.6321,-1.6319,-1.6317,-1.6323,-1.6325,-1.6328,-1.6384,0,0,-1.6334,-1.6335,0,0,0,0,0,0,0,0,-1.633,-1.6333,-1.6348,-1.6346,-1.6343,-1.6346,-1.6357,-1.6377,-1.6324,-1.6331,-1.6319,-1.6316,-1.6333,-1.6334,-1.634,-1.6384,-1.6384,-1.6334,-1.6336,-1.6337,-1.6337,0,0,0,0,0,0,0,-1.6329,-1.6333,-1.6371,-1.6348,-1.6345,-1.6333,-1.6333,-1.6361,-1.6344,-1.633,-1.6326,-1.6327,-1.6332,-1.6338,-1.634,-1.6384,-1.6334,-1.6336,-1.6338,-1.6339,-1.6474,-1.6477,0,0,0,0,0,0,-1.6331,-1.6332,-1.6371,-1.6371,-1.6331,-1.6335,-1.6335,-1.6347,-1.6343,-1.6341,-1.6329,-1.6325,-1.6335,-1.6337,-1.634,-1.6406,-1.6337,-1.6339,-1.634,-1.6472,-1.6475,-1.6477,0,0,0,0,0,0,-1.633,-1.6335,-1.637,-1.635,-1.6354,-1.6339,-1.6352,-1.6348,-1.6355,-1.6343,-1.6339,-1.6339,-1.6334,-1.6337,-1.6373,-1.6405,-1.634,-1.6342,-1.6469,-1.6473,-1.6476,-1.6538,0,0,0,0,0,0,-1.6329,-1.6335,-1.6357,-1.6351,-1.6355,-1.6404,-1.6354,-1.635,-1.6359,-1.6353,-1.6351,-1.6349,-1.6332,-1.637,-1.6375,-1.6407,-1.6344,-1.6467,-1.6471,-1.6475,-1.6533,-1.6543,-1.6552,0,0,0,0,0,-1.6327,-1.6374,-1.6358,-1.6363,-1.6381,-1.6406,-1.6408,-1.6388,-1.6361,-1.6383,-1.6375,-1.6349,-1.64,-1.6374,-1.638,-1.6413,-1.6464,-1.647,-1.6475,-1.6529,-1.6541,-1.6551,0,0,0,0,0,0,-1.6383,-1.6373,-1.6355,-1.6401,-1.6405,-1.6397,-1.6424,-1.6402,-1.6414,-1.6408,-1.6383,-1.6383,-1.6424,-1.6421,-1.6392,-1.6467,-1.6428,-1.6434,-1.6467,-1.6478,-1.6488,-1.6488,-1.6345,0,0,0,0,0,-1.6401,-1.6422,-1.6411,-1.6453,-1.6455,-1.6439,-1.6449,-1.6433,-1.6436,-1.6438,-1.6433,-1.6437,-1.6454,-1.6466,-1.6481,-1.6532,-1.6531,-1.6557,-1.6566,-1.6574,-1.658,-1.6608,-1.6619,-1.6494,-1.6494,-1.6494,0,0,-1.6438,-1.6434,-1.6449,-1.6464,-1.6465,-1.6487,-1.6441,-1.6466,-1.6483,-1.6442,-1.6476,-1.6472,-1.6475,-1.6519,-1.6538,-1.6519,-1.6614,-1.658,-1.6587,-1.6589,-1.6614,-1.6626,-1.6637,-1.6498,-1.6497,-1.6497,0,0,-1.6516,-1.6516,-1.6551,-1.6552,-1.6555,-1.6543,-1.6552,-1.6547,-1.6544,-1.6577,-1.6547,-1.6566,-1.6596,-1.6599,-1.6605,-1.6684,-1.6661,-1.669,-1.6739,-1.6766,-1.6776,-1.6784,-1.6814,-1.6824,-1.6696,-1.6696,-1.6696,0,-1.6562,-1.6594,-1.6571,-1.6599,-1.6606,-1.657,-1.6605,-1.6608,-1.6615,-1.6621,-1.6599,-1.6635,-1.6635,-1.6679,-1.6699,-1.6704,-1.6713,-1.6691,-1.6776,-1.6785,-1.6792,-1.682,-1.6831,-1.6699,-1.6699,-1.6699,-1.6698,0,-1.6651,-1.6674,-1.6701,-1.6709,-1.672,-1.6751,-1.6733,-1.6746,-1.6729,-1.672,-1.6755,-1.6753,-1.6767,-1.6776,-1.676,-1.6819,-1.6806,-1.678,-1.6741,-1.6808,-1.6834,-1.6844,-1.6705,-1.6703,-1.6702,-1.6701,0,0,-1.6767,-1.676,-1.6771,-1.6774,-1.6774,-1.6791,-1.682,-1.6834,-1.6846,-1.6852,-1.6876,-1.6902,-1.6878,-1.6885,-1.6868,-1.6892,-1.6956,-1.6863,-1.6862,-1.6881,-1.7021,-1.7042,-1.7055,-1.6939,-1.6941,-1.6943,-1.7021,0,-1.6844,-1.6894,-1.6874,-1.6926,-1.6947,-1.6912,-1.6938,-1.694,-1.6933,-1.6949,-1.694,-1.696,-1.6926,-1.693,-1.6951,-1.6943,-1.6984,-1.6937,-1.6963,-1.6964,-1.6965,-1.7068,-1.709,-1.7164,-1.7031,-1.7033,-1.7034,0,-1.6942,-1.6952,-1.7006,-1.7002,-1.701,-1.7033,-1.7044,-1.706,-1.7062,-1.7055,-1.7062,-1.704,-1.7069,-1.7028,-1.7068,-1.7037,-1.7046,-1.7043,-1.7046,-1.7049,-1.7004,-1.7075,-1.7187,-1.7199,-1.7049,-1.7048,-1.7047,0,-1.7022,-1.7049,-1.7085,-1.7088,-1.7084,-1.7101,-1.71,-1.71,-1.7109,-1.7119,-1.7125,-1.7137,-1.7144,-1.7155,-1.7137,-1.7109,-1.7179,-1.7137,-1.7175,-1.7175,-1.7192,-1.7192,-1.7309,-1.7196,-1.7196,-1.7196,-1.7195,0,-1.7112,-1.7147,-1.7121,-1.7144,-1.7181,-1.7157,-1.7196,-1.7191,-1.7191,-1.7211,-1.7181,-1.7202,-1.7176,-1.7194,-1.718,-1.7215,-1.7218,-1.7214,-1.721,-1.7217,-1.7218,-1.7224,-1.7219,-1.7198,-1.7198,-1.7197,-1.7197,0,-1.7209,-1.7193,-1.723,-1.7222,-1.7221,-1.725,-1.7243,-1.7264,-1.7253,-1.728,-1.7285,-1.7269,-1.7289,-1.7271,-1.729,-1.728,-1.7328,-1.7316,-1.7328,-1.7325,-1.7364,-1.7361,-1.749,-1.7506,-1.7381,-1.7383,-1.7384,0,-1.7268,-1.7294,-1.7289,-1.7301,-1.7302,-1.7321,-1.7331,-1.7307,-1.7319,-1.7322,-1.7343,-1.7359,-1.7372,-1.7404,-1.7394,-1.7408,-1.7397,-1.7442,-1.7399,-1.7406,-1.7399,-1.7399,-1.7402,-1.7451,-1.7452,-1.7453,-1.7454,0,-1.7375,-1.7366,-1.7381,-1.7393,-1.7405,-1.7413,-1.7419,-1.7431,-1.7407,-1.7421,-1.744,-1.745,-1.7468,-1.7486,-1.7496,-1.7495,-1.7472,-1.7468,-1.7477,-1.7486,-1.7492,-1.749,-1.7352,-1.7465,-1.7464,-1.7463,-1.7463,-1.7462,-1.7456,-1.7478,-1.7478,-1.7495,-1.7497,-1.7503,-1.7522,-1.7514,-1.753,-1.7543,-1.7528,-1.7552,-1.7553,-1.7565,-1.7567,-1.7585,-1.7567,-1.758,-1.7584,-1.7588,-1.7594,-1.7488,-1.7587,-1.7586,-1.7586,-1.7586,-1.7586,0,-1.7563,-1.7561,-1.7577,-1.7586,-1.76,-1.7575,-1.7581,-1.7594,-1.7615,-1.7618,-1.763,-1.7653,-1.7669,-1.766,-1.7674,-1.7691,-1.768,-1.7695,-1.7695,-1.7695,-1.7609,-1.76,-1.7704,-1.7704,-1.7704,-1.7704,-1.7704,-1.7704,-1.762,-1.7656,-1.7646,-1.7682,-1.768,-1.7703,-1.7708,-1.7714,-1.7716,-1.7742,-1.7756,-1.7749,-1.7747,-1.7761,-1.7775,-1.7772,-1.7779,-1.7799,-1.7792,-1.7713,-1.7701,-1.769,-1.7681,-1.78,-1.78,-1.7876,-1.7877,-1.7877]},{"header":{"parameterUnit":"m.s-1","parameterCategory":1,"la1":30.2991,"la2":30.254,"lo1":-89.0895,"lo2":-89.0444,"dy":0.0017,"dx":0.0017,"nx":28,"ny":28,"refTime":"2024-03-16T03:00:00:Z","depth":0,"parameterNumber":3,"parameterNumberName":"V-component_of_WINDS"},"data":[0,0,0,0,0,0,0,0,0,0,0,0,0,0,0,0,0,0,0,0,0,0,0,0,0,0,0,0,0,0,0,0,0,0,0,0,0,0,0,0,0,0,0,0,0,0,0,0,0,0,0,0,0,0,0,0,0,0,-3.1083,-3.1083,0,-3.1105,-3.1105,-3.1105,-3.1082,-3.1081,-3.108,-3.1079,-3.1099,-3.11,-3.1101,0,0,0,0,0,0,0,0,0,0,0,0,0,-3.1018,-3.1019,-3.1083,-3.1083,-3.1083,-3.1104,-3.1105,-3.1105,-3.1082,-3.1081,-3.108,-3.1079,-3.1098,-3.11,-3.1101,0,0,0,0,0,0,0,0,0,0,0,0,0,-3.1044,-3.102,-3.1083,-3.1074,-3.1074,-3.1104,-3.1105,-3.1105,-3.1082,-3.1081,-3.108,-3.1078,-3.1098,-3.11,-3.1102,-3.1141,0,0,-3.1108,-3.1109,0,0,0,0,0,0,0,0,-3.1042,-3.1046,-3.1075,-3.1075,-3.1074,-3.1089,-3.1089,-3.1117,-3.1083,-3.1079,-3.1079,-3.1078,-3.1096,-3.1098,-3.1105,-3.1141,-3.1142,-3.1108,-3.1109,-3.111,-3.1111,0,0,0,0,0,0,0,-3.104,-3.1045,-3.1091,-3.1076,-3.1075,-3.1069,-3.1071,-3.1094,-3.1095,-3.1079,-3.1078,-3.1081,-3.1096,-3.1103,-3.1106,-3.1143,-3.1108,-3.111,-3.1111,-3.1112,-3.1212,-3.1213,0,0,0,0,0,0,-3.104,-3.1044,-3.109,-3.1092,-3.1055,-3.1071,-3.1073,-3.1086,-3.1094,-3.1095,-3.1082,-3.1079,-3.1101,-3.1103,-3.1106,-3.1153,-3.111,-3.1112,-3.1113,-3.1211,-3.1212,-3.1214,0,0,0,0,0,0,-3.1039,-3.1044,-3.109,-3.1067,-3.1073,-3.1073,-3.1088,-3.1087,-3.1094,-3.1096,-3.1096,-3.109,-3.11,-3.1103,-3.1133,-3.1153,-3.1113,-3.1115,-3.1209,-3.1211,-3.1213,-3.1247,0,0,0,0,0,0,-3.1037,-3.1044,-3.106,-3.1068,-3.1074,-3.1117,-3.1089,-3.1088,-3.1098,-3.1096,-3.1104,-3.1104,-3.1099,-3.113,-3.1135,-3.1155,-3.1116,-3.1207,-3.121,-3.1212,-3.1244,-3.125,-3.1255,0,0,0,0,0,-3.1035,-3.1067,-3.106,-3.1066,-3.1093,-3.1118,-3.1121,-3.1116,-3.11,-3.1115,-3.1117,-3.1103,-3.115,-3.1133,-3.1138,-3.116,-3.1206,-3.1209,-3.1212,-3.1241,-3.1248,-3.1255,0,0,0,0,0,0,-3.106,-3.1068,-3.1061,-3.1097,-3.1107,-3.1114,-3.1133,-3.1124,-3.1137,-3.1134,-3.1126,-3.1128,-3.1159,-3.1162,-3.1143,-3.1198,-3.1175,-3.118,-3.1195,-3.1202,-3.1208,-3.1207,-3.1118,0,0,0,0,0,-3.107,-3.109,-3.1096,-3.1127,-3.1133,-3.1132,-3.1142,-3.1138,-3.1147,-3.1151,-3.1154,-3.1163,-3.118,-3.1191,-3.1206,-3.1244,-3.1245,-3.1261,-3.1267,-3.1271,-3.1275,-3.1296,-3.1303,-3.1225,-3.1225,-3.1225,0,0,-3.1091,-3.1097,-3.111,-3.1133,-3.114,-3.116,-3.1136,-3.1158,-3.1173,-3.1154,-3.1182,-3.1185,-3.1194,-3.1228,-3.1243,-3.1231,-3.1297,-3.1275,-3.1279,-3.1281,-3.13,-3.1307,-3.1314,-3.1227,-3.1227,-3.1226,0,0,-3.1139,-3.1146,-3.1174,-3.1181,-3.1193,-3.1192,-3.1199,-3.1207,-3.1209,-3.1237,-3.1224,-3.1241,-3.1269,-3.1277,-3.1285,-3.1336,-3.1325,-3.1341,-3.137,-3.139,-3.1397,-3.1402,-3.1421,-3.1428,-3.1345,-3.1345,-3.1345,0,-3.1163,-3.1194,-3.1188,-3.1212,-3.1222,-3.1207,-3.1235,-3.1242,-3.1258,-3.1265,-3.1252,-3.1288,-3.1293,-3.1329,-3.1342,-3.1348,-3.1355,-3.134,-3.1396,-3.1402,-3.1407,-3.1425,-3.1432,-3.1347,-3.1347,-3.1347,-3.1346,0,-3.1223,-3.1245,-3.1265,-3.1283,-3.1295,-3.132,-3.1318,-3.1331,-3.1325,-3.1325,-3.1354,-3.136,-3.1377,-3.1384,-3.1378,-3.1419,-3.1412,-3.1398,-3.1375,-3.1416,-3.1433,-3.144,-3.135,-3.1349,-3.1349,-3.1348,0,0,-3.1288,-3.1302,-3.131,-3.1318,-3.133,-3.1346,-3.137,-3.1388,-3.1399,-3.141,-3.1431,-3.1456,-3.1443,-3.1452,-3.1446,-3.1463,-3.1505,-3.1447,-3.1447,-3.1458,-3.1551,-3.1562,-3.157,-3.1497,-3.1498,-3.1499,-3.155,0,-3.1337,-3.1382,-3.1378,-3.1419,-3.1439,-3.1425,-3.1446,-3.1455,-3.1457,-3.1473,-3.1473,-3.1492,-3.1473,-3.1478,-3.1495,-3.1496,-3.1523,-3.1492,-3.1516,-3.1516,-3.1515,-3.1579,-3.1591,-3.1639,-3.1557,-3.1558,-3.1559,0,-3.1401,-3.1416,-3.146,-3.147,-3.1478,-3.1497,-3.1513,-3.1529,-3.1539,-3.1538,-3.1548,-3.154,-3.1564,-3.154,-3.1573,-3.1552,-3.1561,-3.1563,-3.1565,-3.1567,-3.1541,-3.1584,-3.1654,-3.1661,-3.1569,-3.1568,-3.1567,0,-3.1445,-3.1476,-3.1507,-3.1514,-3.1525,-3.1539,-3.1544,-3.1553,-3.1564,-3.1577,-3.1584,-3.16,-3.1608,-3.162,-3.1616,-3.1599,-3.165,-3.1625,-3.165,-3.165,-3.1662,-3.1661,-3.1735,-3.1666,-3.1666,-3.1666,-3.1666,0,-3.1501,-3.1529,-3.1527,-3.1546,-3.1576,-3.1571,-3.1601,-3.1604,-3.1612,-3.163,-3.1618,-3.1636,-3.1629,-3.1646,-3.1642,-3.167,-3.1674,-3.1674,-3.1673,-3.1676,-3.1676,-3.1682,-3.1679,-3.1668,-3.1668,-3.1667,-3.1667,0,-3.1556,-3.1556,-3.1589,-3.1597,-3.16,-3.1622,-3.1629,-3.1646,-3.1646,-3.167,-3.1675,-3.1675,-3.1695,-3.1691,-3.1712,-3.171,-3.1745,-3.174,-3.1743,-3.1742,-3.1767,-3.1765,-3.1848,-3.1859,-3.1782,-3.1783,-3.1784,0,-3.1593,-3.1614,-3.1625,-3.1638,-3.1644,-3.1664,-3.1675,-3.167,-3.1682,-3.1695,-3.1711,-3.173,-3.1744,-3.1776,-3.1777,-3.1793,-3.1788,-3.1816,-3.179,-3.1793,-3.1789,-3.1789,-3.1791,-3.1821,-3.1822,-3.1823,-3.1823,0,-3.1657,-3.1656,-3.1674,-3.1692,-3.1706,-3.172,-3.1732,-3.1742,-3.1738,-3.1752,-3.1773,-3.1784,-3.1806,-3.1825,-3.184,-3.1844,-3.1833,-3.1831,-3.1838,-3.1842,-3.1843,-3.1843,-3.1757,-3.183,-3.1829,-3.1829,-3.1828,-3.1828,-3.1705,-3.1723,-3.1735,-3.1755,-3.1763,-3.1775,-3.1792,-3.1795,-3.1812,-3.1831,-3.1826,-3.1849,-3.1858,-3.1877,-3.1883,-3.1901,-3.189,-3.19,-3.1902,-3.1905,-3.1909,-3.184,-3.1903,-3.1903,-3.1903,-3.1903,-3.1903,0,-3.177,-3.1776,-3.1795,-3.1813,-3.1829,-3.1818,-3.1831,-3.1844,-3.1865,-3.1875,-3.189,-3.1914,-3.1931,-3.1934,-3.1951,-3.1965,-3.196,-3.1969,-3.1969,-3.197,-3.1916,-3.191,-3.1973,-3.1973,-3.1973,-3.1973,-3.1973,-3.1973,-3.1805,-3.1837,-3.1837,-3.1872,-3.1878,-3.1902,-3.191,-3.192,-3.1928,-3.1956,-3.1971,-3.1973,-3.198,-3.1997,-3.2013,-3.2013,-3.202,-3.2032,-3.203,-3.198,-3.1973,-3.1967,-3.196,-3.2033,-3.2033,-3.2082,-3.2082,-3.2083]}]]